RYR3GX EPSC-EGSS

Flight info

Callsign RYR3GX
Flight time N/A
Altitude 30000
Route PESEL L87 KETAP L619 PODUS/N0439F380 DCT BATEL DCT NOGRO M40 RINIS
Aircraft B738/M-SDE3FGIJ1LRWY/SB1

Departure

Time 2026-04-21 15:52
Airport Solidarity Szczecin–Goleniów Airport (EPSC)

Arrival

Time N/A
Airport London Stansted Airport (EGSS)
Time Latitude Longitude Altitude Speed Heading
2026-04-21 15:30 53.59246 14.89395 141 ft 0 kts 46°
2026-04-21 15:46 53.59247 14.89396 141 ft 0 kts 47°
2026-04-21 15:46 53.59247 14.89397 141 ft 1 kts 49°
2026-04-21 15:46 53.59246 14.89407 141 ft 1 kts 107°
2026-04-21 15:47 53.59238 14.89406 141 ft 1 kts 191°
2026-04-21 15:47 53.59203 14.89355 141 ft 12 kts 220°
2026-04-21 15:47 53.59143 14.89346 141 ft 9 kts 131°
2026-04-21 15:47 53.59095 14.89438 141 ft 13 kts 131°
2026-04-21 15:48 53.59014 14.89600 140 ft 23 kts 129°
2026-04-21 15:48 53.58893 14.89832 139 ft 28 kts 130°
2026-04-21 15:48 53.58769 14.90071 139 ft 26 kts 130°
2026-04-21 15:48 53.58654 14.90293 141 ft 24 kts 130°
2026-04-21 15:49 53.58548 14.90502 142 ft 23 kts 130°
2026-04-21 15:49 53.58445 14.90700 144 ft 22 kts 131°
2026-04-21 15:49 53.58336 14.90913 146 ft 26 kts 130°
2026-04-21 15:49 53.58209 14.91160 152 ft 29 kts 130°
2026-04-21 15:50 53.58077 14.91416 157 ft 28 kts 131°
2026-04-21 15:50 53.57965 14.91636 161 ft 18 kts 130°
2026-04-21 15:50 53.57898 14.91765 162 ft 9 kts 136°
2026-04-21 15:50 53.57839 14.91760 162 ft 9 kts 217°
2026-04-21 15:51 53.57789 14.91690 162 ft 9 kts 220°
2026-04-21 15:51 53.57757 14.91642 162 ft 5 kts 233°
2026-04-21 15:51 53.57772 14.91592 163 ft 8 kts 310°
2026-04-21 15:51 53.57939 14.91265 160 ft 74 kts 310°
2026-04-21 15:52 53.58442 14.90298 153 ft 137 kts 312°
2026-04-21 15:52 53.59094 14.88965 640 ft 152 kts 315°
2026-04-21 15:52 53.59542 14.88070 1181 ft 152 kts 318°
2026-04-21 15:52 53.60607 14.86087 1800 ft 190 kts 318°
2026-04-21 15:53 53.61559 14.84281 2089 ft 221 kts 316°
2026-04-21 15:53 53.62618 14.82226 2388 ft 247 kts 316°
2026-04-21 15:53 53.63696 14.79849 3046 ft 264 kts 300°
2026-04-21 15:53 53.64045 14.76771 3941 ft 277 kts 265°
2026-04-21 15:54 53.63423 14.73693 4939 ft 276 kts 243°
2026-04-21 15:54 53.62545 14.70836 5945 ft 278 kts 242°
2026-04-21 15:54 53.61625 14.67913 6735 ft 283 kts 242°
2026-04-21 15:54 53.60702 14.64970 7503 ft 290 kts 242°
2026-04-21 15:55 53.59757 14.61931 8278 ft 296 kts 243°
2026-04-21 15:55 53.58805 14.58841 9114 ft 299 kts 243°
2026-04-21 15:55 53.57843 14.55701 9948 ft 304 kts 243°
2026-04-21 15:55 53.56872 14.52525 10645 ft 312 kts 243°
2026-04-21 15:56 53.55838 14.49136 10869 ft 336 kts 243°
2026-04-21 15:56 53.54748 14.45563 11365 ft 349 kts 243°
2026-04-21 15:56 53.53632 14.41908 12093 ft 354 kts 242°
2026-04-21 15:56 53.52500 14.38207 12886 ft 358 kts 242°
2026-04-21 15:57 53.51344 14.34459 13692 ft 363 kts 240°
2026-04-21 15:57 53.49781 14.31143 14416 ft 365 kts 217°
2026-04-21 15:57 53.47763 14.28555 15206 ft 366 kts 214°
2026-04-21 15:57 53.45703 14.26001 15971 ft 371 kts 213°
2026-04-21 15:58 53.43609 14.23408 16724 ft 376 kts 214°
2026-04-21 15:58 53.41504 14.20787 17486 ft 380 kts 214°
2026-04-21 15:58 53.39364 14.18109 18265 ft 385 kts 214°
2026-04-21 15:58 53.37213 14.15404 18963 ft 389 kts 214°
2026-04-21 15:59 53.35774 14.13591 19400 ft 392 kts 214°
2026-04-21 15:59 53.32845 14.09902 20250 ft 398 kts 214°
2026-04-21 15:59 53.30611 14.07090 20884 ft 403 kts 214°
2026-04-21 15:59 53.28361 14.04261 21505 ft 407 kts 214°
2026-04-21 16:00 53.26085 14.01404 22130 ft 412 kts 214°
2026-04-21 16:00 53.23787 13.98521 22737 ft 416 kts 214°
2026-04-21 16:00 53.21458 13.95603 23332 ft 420 kts 214°
2026-04-21 16:00 53.19103 13.92661 23913 ft 425 kts 214°
2026-04-21 16:01 53.16690 13.89789 24393 ft 427 kts 209°
2026-04-21 16:01 53.14163 13.87145 24900 ft 430 kts 207°
2026-04-21 16:01 53.11594 13.84564 25402 ft 433 kts 207°
2026-04-21 16:01 53.09008 13.81980 25863 ft 436 kts 207°
2026-04-21 16:02 53.07246 13.80208 26182 ft 439 kts 207°
2026-04-21 16:02 53.04624 13.77552 26648 ft 443 kts 208°
2026-04-21 16:02 53.01990 13.74866 27104 ft 446 kts 208°
2026-04-21 16:02 52.99338 13.72161 27563 ft 449 kts 208°
2026-04-21 16:03 52.96741 13.69295 27982 ft 457 kts 218°
2026-04-21 16:03 52.94681 13.65258 28381 ft 465 kts 239°
2026-04-21 16:03 52.93432 13.60305 28853 ft 467 kts 257°
2026-04-21 16:03 52.93057 13.55001 29259 ft 465 kts 275°
2026-04-21 16:04 52.93275 13.49640 29688 ft 466 kts 278°
2026-04-21 16:04 52.93564 13.44282 30054 ft 470 kts 278°
2026-04-21 16:04 52.93846 13.38845 30404 ft 474 kts 277°
2026-04-21 16:04 52.94089 13.33373 30727 ft 476 kts 277°
2026-04-21 16:05 52.94304 13.27883 31080 ft 478 kts 276°
2026-04-21 16:05 52.94507 13.22375 31397 ft 480 kts 276°
2026-04-21 16:05 52.94711 13.16833 31685 ft 483 kts 276°
2026-04-21 16:05 52.94917 13.11269 32009 ft 484 kts 276°
2026-04-21 16:06 52.95120 13.05712 32455 ft 483 kts 276°
2026-04-21 16:06 52.95319 13.00171 32970 ft 479 kts 276°
2026-04-21 16:06 52.95514 12.94659 33460 ft 477 kts 275°
2026-04-21 16:06 52.95697 12.89179 33867 ft 477 kts 273°
2026-04-21 16:07 52.95540 12.83688 34235 ft 479 kts 263°
2026-04-21 16:07 52.94888 12.78272 34594 ft 478 kts 254°
2026-04-21 16:07 52.93782 12.73079 34946 ft 476 kts 249°
2026-04-21 16:07 52.92584 12.68004 35312 ft 474 kts 248°
2026-04-21 16:08 52.90146 12.57839 35967 ft 473 kts 248°
2026-04-21 16:08 52.88948 12.52791 36309 ft 471 kts 249°
2026-04-21 16:08 52.87760 12.47742 36655 ft 469 kts 249°
2026-04-21 16:09 52.86582 12.42708 36987 ft 468 kts 249°
2026-04-21 16:09 52.85409 12.37682 37289 ft 467 kts 249°
2026-04-21 16:09 52.84238 12.32669 37617 ft 466 kts 249°
2026-04-21 16:09 52.83071 12.27681 37946 ft 464 kts 249°
2026-04-21 16:10 52.81904 12.22707 38240 ft 463 kts 249°
2026-04-21 16:10 52.79551 12.12717 38286 ft 469 kts 249°
2026-04-21 16:11 52.77180 12.02708 38274 ft 465 kts 249°
2026-04-21 16:11 52.74832 11.92839 38282 ft 460 kts 249°
2026-04-21 16:12 52.72472 11.82965 38285 ft 460 kts 249°
2026-04-21 16:12 52.70118 11.73161 38284 ft 459 kts 249°
2026-04-21 16:13 52.67757 11.63372 38292 ft 459 kts 249°
2026-04-21 16:13 52.65387 11.53587 38277 ft 460 kts 249°
2026-04-21 16:14 52.63007 11.43806 38291 ft 460 kts 249°
2026-04-21 16:14 52.60616 11.34023 38286 ft 461 kts 249°
2026-04-21 16:15 52.58215 11.24236 38287 ft 462 kts 249°
2026-04-21 16:15 52.55801 11.14435 38286 ft 463 kts 249°
2026-04-21 16:16 52.54331 11.04209 38278 ft 460 kts 267°
2026-04-21 16:16 52.53943 10.93732 38282 ft 460 kts 268°
2026-04-21 16:17 52.53578 10.83239 38291 ft 460 kts 268°
2026-04-21 16:17 52.53168 10.72740 38291 ft 461 kts 268°
2026-04-21 16:18 52.52725 10.62246 38300 ft 461 kts 267°
2026-04-21 16:18 52.52265 10.51741 38275 ft 461 kts 267°
2026-04-21 16:19 52.51800 10.41346 38287 ft 460 kts 267°
2026-04-21 16:19 52.51323 10.30874 38292 ft 459 kts 267°
2026-04-21 16:20 52.50840 10.20441 38289 ft 458 kts 267°
2026-04-21 16:20 52.50347 10.10004 38291 ft 458 kts 267°
2026-04-21 16:21 52.49848 9.99627 38293 ft 457 kts 266°
2026-04-21 16:21 52.49337 9.89202 38291 ft 457 kts 266°
2026-04-21 16:22 52.48819 9.78816 38295 ft 456 kts 266°
2026-04-21 16:22 52.48293 9.68446 38295 ft 456 kts 266°
2026-04-21 16:23 52.47757 9.58084 38292 ft 456 kts 266°
2026-04-21 16:23 52.47212 9.47703 38289 ft 456 kts 266°
2026-04-21 16:24 52.46657 9.37324 38285 ft 457 kts 266°
2026-04-21 16:24 52.46093 9.26941 38290 ft 457 kts 266°
2026-04-21 16:25 52.45520 9.16551 38293 ft 458 kts 266°
2026-04-21 16:25 52.44936 9.06149 38288 ft 458 kts 266°
2026-04-21 16:26 52.44343 8.95744 38282 ft 459 kts 266°
2026-04-21 16:26 52.43741 8.85340 38285 ft 459 kts 266°
2026-04-21 16:27 52.43129 8.74937 38300 ft 458 kts 265°
2026-04-21 16:27 52.42505 8.64473 38282 ft 458 kts 265°
2026-04-21 16:28 52.41876 8.54097 38288 ft 457 kts 265°
2026-04-21 16:28 52.41239 8.43735 38277 ft 456 kts 265°
2026-04-21 16:29 52.40705 8.35157 38276 ft 455 kts 266°
2026-04-21 16:29 52.39944 8.23127 38290 ft 453 kts 265°
2026-04-21 16:30 52.39287 8.12879 38288 ft 452 kts 265°
2026-04-21 16:30 52.38623 8.02652 38282 ft 451 kts 265°
2026-04-21 16:31 52.37950 7.92448 38275 ft 451 kts 265°
2026-04-21 16:31 52.37270 7.82255 38288 ft 450 kts 265°
2026-04-21 16:32 52.36582 7.72092 38295 ft 449 kts 265°
2026-04-21 16:32 52.35886 7.61928 38301 ft 449 kts 265°
2026-04-21 16:33 52.35180 7.51763 38294 ft 450 kts 265°
2026-04-21 16:33 52.34465 7.41591 38288 ft 450 kts 265°
2026-04-21 16:34 52.33741 7.31413 38292 ft 451 kts 265°
2026-04-21 16:34 52.33004 7.21194 38290 ft 452 kts 265°
2026-04-21 16:35 52.32260 7.10998 38296 ft 452 kts 265°
2026-04-21 16:35 52.31507 7.00798 38302 ft 452 kts 265°
2026-04-21 16:36 52.30874 6.92315 38280 ft 452 kts 265°
2026-04-21 16:36 52.30104 6.82121 38291 ft 451 kts 265°
2026-04-21 16:37 52.29330 6.71989 38284 ft 449 kts 265°
2026-04-21 16:37 52.28550 6.61890 38286 ft 447 kts 265°
2026-04-21 16:38 52.27765 6.51829 38289 ft 445 kts 265°
2026-04-21 16:38 52.26975 6.41829 38274 ft 444 kts 265°
2026-04-21 16:39 52.26178 6.31853 38285 ft 442 kts 265°
2026-04-21 16:39 52.25378 6.21934 38289 ft 441 kts 265°
2026-04-21 16:40 52.24569 6.12016 38293 ft 441 kts 264°
2026-04-21 16:40 52.23750 6.02083 38294 ft 441 kts 264°
2026-04-21 16:41 52.22923 5.92163 38278 ft 442 kts 264°
2026-04-21 16:41 52.22088 5.82237 38293 ft 443 kts 264°
2026-04-21 16:42 52.21241 5.72284 38297 ft 444 kts 264°
2026-04-21 16:42 52.20383 5.62303 38303 ft 445 kts 264°
2026-04-21 16:43 52.19515 5.52297 38301 ft 446 kts 264°
2026-04-21 16:43 52.18636 5.42274 38301 ft 447 kts 264°
2026-04-21 16:44 52.17750 5.32273 38296 ft 447 kts 264°
2026-04-21 16:44 52.16851 5.22232 38289 ft 448 kts 264°
2026-04-21 16:45 52.15946 5.12214 38295 ft 447 kts 264°
2026-04-21 16:45 52.15032 5.02202 38293 ft 446 kts 264°
2026-04-21 16:46 52.14114 4.92234 38287 ft 444 kts 264°
2026-04-21 16:46 52.13191 4.82315 38287 ft 442 kts 264°
2026-04-21 16:47 52.12264 4.72434 38289 ft 440 kts 264°
2026-04-21 16:47 52.11332 4.62604 38293 ft 439 kts 263°
2026-04-21 16:48 52.10390 4.52743 38293 ft 438 kts 263°
2026-04-21 16:48 52.09456 4.43061 38289 ft 437 kts 263°
2026-04-21 16:49 52.08505 4.33292 38287 ft 437 kts 263°
2026-04-21 16:49 52.07546 4.23527 38293 ft 438 kts 263°
2026-04-21 16:50 52.06578 4.13753 38294 ft 438 kts 263°
2026-04-21 16:50 52.06088 4.08837 37940 ft 444 kts 263°
2026-04-21 16:50 52.05593 4.03891 37482 ft 441 kts 263°
2026-04-21 16:50 52.05099 3.98993 37054 ft 438 kts 263°
2026-04-21 16:51 52.04607 3.94135 36665 ft 434 kts 263°
2026-04-21 16:51 52.04118 3.89326 36264 ft 430 kts 263°
2026-04-21 16:51 52.03633 3.84567 35888 ft 426 kts 263°
2026-04-21 16:51 52.03148 3.79828 35493 ft 423 kts 263°
2026-04-21 16:52 52.02666 3.75140 35105 ft 420 kts 263°
2026-04-21 16:52 52.02185 3.70470 34727 ft 417 kts 263°
2026-04-21 16:52 52.01706 3.65849 34335 ft 415 kts 263°
2026-04-21 16:52 52.01227 3.61237 33877 ft 412 kts 263°
2026-04-21 16:53 52.00750 3.56662 33460 ft 409 kts 263°
2026-04-21 16:53 52.00275 3.52136 33069 ft 406 kts 263°
2026-04-21 16:53 51.99801 3.47631 32665 ft 403 kts 263°
2026-04-21 16:53 51.99330 3.43165 32290 ft 400 kts 263°
2026-04-21 16:54 51.98855 3.38683 31920 ft 396 kts 264°
2026-04-21 16:54 51.98395 3.34361 31562 ft 392 kts 263°
2026-04-21 16:54 51.97925 3.29956 31189 ft 390 kts 263°
2026-04-21 16:54 51.97466 3.25651 30833 ft 387 kts 264°
2026-04-21 16:55 51.97005 3.21362 30474 ft 384 kts 263°
2026-04-21 16:55 51.96553 3.17131 30058 ft 381 kts 264°
2026-04-21 16:55 51.96204 3.12885 29627 ft 378 kts 267°
2026-04-21 16:55 51.95936 3.08675 29243 ft 374 kts 268°
2026-04-21 16:56 51.95688 3.04502 28842 ft 371 kts 268°
2026-04-21 16:56 51.95440 3.00360 28478 ft 367 kts 268°
2026-04-21 16:56 51.95185 2.96257 28095 ft 365 kts 266°
2026-04-21 16:56 51.94924 2.92180 27710 ft 362 kts 268°
2026-04-21 16:57 51.94660 2.88143 27382 ft 359 kts 267°
2026-04-21 16:57 51.94395 2.84127 27012 ft 358 kts 267°
2026-04-21 16:57 51.94127 2.80106 26646 ft 357 kts 267°
2026-04-21 16:57 51.93860 2.76114 26281 ft 356 kts 267°
2026-04-21 16:58 51.93592 2.72130 25919 ft 357 kts 267°
2026-04-21 16:58 51.93319 2.68118 25556 ft 359 kts 267°
2026-04-21 16:58 51.93045 2.64102 25167 ft 359 kts 268°
2026-04-21 16:58 51.92769 2.60085 24800 ft 358 kts 266°
2026-04-21 16:59 51.92493 2.56090 24428 ft 357 kts 266°
2026-04-21 16:59 51.92217 2.52103 24079 ft 356 kts 266°
2026-04-21 16:59 51.91940 2.48123 23675 ft 355 kts 265°
2026-04-21 16:59 51.91663 2.44152 23283 ft 354 kts 266°
2026-04-21 17:00 51.91387 2.40207 22940 ft 351 kts 265°
2026-04-21 17:00 51.91111 2.36304 22595 ft 348 kts 266°
2026-04-21 17:00 51.90928 2.33728 22375 ft 346 kts 265°
2026-04-21 17:00 51.90664 2.28563 21899 ft 344 kts 270°
2026-04-21 17:01 51.90582 2.24690 21569 ft 344 kts 271°
2026-04-21 17:01 51.90517 2.20804 21214 ft 346 kts 271°
2026-04-21 17:01 51.90448 2.16907 20866 ft 347 kts 270°
2026-04-21 17:01 51.90369 2.12999 20518 ft 347 kts 270°
2026-04-21 17:02 51.90282 2.09093 20169 ft 346 kts 269°
2026-04-21 17:02 51.90189 2.05204 19807 ft 345 kts 270°
2026-04-21 17:02 51.90095 2.01328 19467 ft 344 kts 270°
2026-04-21 17:02 51.89998 1.97462 19111 ft 344 kts 270°
2026-04-21 17:03 51.89901 1.93599 18773 ft 342 kts 269°
2026-04-21 17:03 51.89856 1.89768 18393 ft 340 kts 277°
2026-04-21 17:03 51.90497 1.86143 18056 ft 332 kts 298°
2026-04-21 17:03 51.91546 1.82853 17763 ft 327 kts 301°
2026-04-21 17:04 51.92634 1.79624 17470 ft 325 kts 302°
2026-04-21 17:04 51.93722 1.76421 17194 ft 325 kts 302°
2026-04-21 17:04 51.94807 1.73211 16910 ft 324 kts 301°
2026-04-21 17:04 51.95880 1.70007 16630 ft 323 kts 301°
2026-04-21 17:05 51.96947 1.66791 16343 ft 323 kts 300°
2026-04-21 17:05 51.98019 1.63542 16057 ft 322 kts 300°
2026-04-21 17:05 51.99057 1.60390 15799 ft 322 kts 300°